Time,TemperatureF,DewpointF,PressureIn,WindDirection,WindDirectionDegrees,WindSpeedMPH,WindSpeedGustMPH,Humidity,HourlyPrecipIn,Conditions,Clouds,dailyrainin,SoftwareType,DateUTC
2013-10-30 00:03:00,38.8,33.0,30.30,WSW,249,0.0,0.0,78,0.00,,,0.00,weatherlink.com 1.10,2013-10-30 04:03:00,
2013-10-30 00:10:00,38.8,32.8,30.30,WSW,249,0.0,0.0,79,0.00,,,0.00,Wunderground v.1.15,2013-10-30 04:10:00,
2013-10-30 00:19:00,38.7,33.0,30.30,WSW,249,0.0,1.0,79,0.00,,,0.00,weatherlink.com 1.10,2013-10-30 04:19:00,
2013-10-30 00:34:00,38.7,33.0,30.29,WSW,249,0.0,0.0,81,0.00,,,0.00,weatherlink.com 1.10,2013-10-30 04:34:00,
2013-10-30 00:40:00,38.7,33.7,30.30,WSW,249,0.0,0.0,82,0.00,,,0.00,Wunderground v.1.15,2013-10-30 04:40:00,
2013-10-30 00:49:00,38.4,33.0,30.29,WSW,249,0.0,0.0,81,0.00,,,0.00,weatherlink.com 1.10,2013-10-30 04:49:00,
2013-10-30 01:04:00,38.5,33.0,30.29,WSW,249,0.0,0.0,82,0.00,,,0.00,weatherlink.com 1.10,2013-10-30 05:04:00,
2013-10-30 01:10:00,38.5,33.2,30.29,WSW,249,0.0,0.0,81,0.00,,,0.00,Wunderground v.1.15,2013-10-30 05:10:00,
2013-10-30 01:19:00,38.5,33.0,30.29,WSW,249,0.0,0.0,81,0.00,,,0.00,weatherlink.com 1.10,2013-10-30 05:19:00,
2013-10-30 01:34:00,38.7,34.0,30.29,WSW,249,0.0,0.0,84,0.00,,,0.00,weatherlink.com 1.10,2013-10-30 05:34:00,
2013-10-30 01:40:00,38.7,34.0,30.29,WSW,249,0.0,0.0,83,0.00,,,0.00,Wunderground v.1.15,2013-10-30 05:40:00,
2013-10-30 01:49:00,38.9,35.0,30.28,WSW,249,1.0,2.0,84,0.00,,,0.00,weatherlink.com 1.10,2013-10-30 05:49:00,
2013-10-30 02:04:00,39.1,35.0,30.28,East,84,0.0,2.0,86,0.00,,,0.00,weatherlink.com 1.10,2013-10-30 06:04:00,
2013-10-30 02:10:00,39.0,35.2,30.28,East,84,1.0,1.0,86,0.00,,,0.00,Wunderground v.1.15,2013-10-30 06:10:00,
2013-10-30 02:19:00,38.9,35.0,30.27,East,84,0.0,2.0,87,0.00,,,0.00,weatherlink.com 1.10,2013-10-30 06:19:00,
2013-10-30 02:34:00,38.6,35.0,30.26,SE,128,0.0,3.0,88,0.00,,,0.00,weatherlink.com 1.10,2013-10-30 06:34:00,
2013-10-30 02:40:00,38.4,35.2,30.26,ESE,102,1.0,1.0,88,0.00,,,0.00,Wunderground v.1.15,2013-10-30 06:40:00,
2013-10-30 02:49:00,38.4,35.0,30.26,ESE,103,2.0,2.0,88,0.00,,,0.00,weatherlink.com 1.10,2013-10-30 06:49:00,
2013-10-30 03:04:00,38.3,35.0,30.26,SSE,153,0.0,2.0,88,0.00,,,0.00,weatherlink.com 1.10,2013-10-30 07:04:00,
2013-10-30 03:10:00,38.3,35.1,30.26,SSE,153,0.0,0.0,88,0.00,,,0.00,Wunderground v.1.15,2013-10-30 07:10:00,
2013-10-30 03:19:00,38.5,35.0,30.27,SSE,153,0.0,1.0,88,0.00,,,0.00,weatherlink.com 1.10,2013-10-30 07:19:00,
2013-10-30 03:34:00,38.7,36.0,30.27,SSE,153,0.0,0.0,88,0.00,,,0.00,weatherlink.com 1.10,2013-10-30 07:34:00,
2013-10-30 03:40:00,38.7,35.5,30.26,SSE,153,0.0,0.0,88,0.00,,,0.00,Wunderground v.1.15,2013-10-30 07:40:00,
2013-10-30 03:50:00,38.7,36.0,30.26,SSE,153,0.0,1.0,89,0.00,,,0.00,weatherlink.com 1.10,2013-10-30 07:50:00,
2013-10-30 04:04:00,38.7,36.0,30.25,South,171,0.0,3.0,89,0.00,,,0.00,weatherlink.com 1.10,2013-10-30 08:04:00,
2013-10-30 04:10:00,38.7,35.7,30.26,South,171,0.0,0.0,89,0.00,,,0.00,Wunderground v.1.15,2013-10-30 08:10:00,
2013-10-30 04:19:00,38.9,36.0,30.25,South,170,1.0,2.0,90,0.00,,,0.00,weatherlink.com 1.10,2013-10-30 08:19:00,
2013-10-30 04:34:00,39.2,36.0,30.25,SSE,161,0.0,2.0,89,0.00,,,0.00,weatherlink.com 1.10,2013-10-30 08:34:00,
2013-10-30 04:40:00,39.1,36.4,30.25,SSE,161,0.0,0.0,90,0.00,,,0.00,Wunderground v.1.15,2013-10-30 08:40:00,
2013-10-30 04:50:00,39.2,37.0,30.25,East,83,2.0,2.0,90,0.00,,,0.00,weatherlink.com 1.10,2013-10-30 08:50:00,
2013-10-30 05:04:00,39.2,36.0,30.25,East,83,0.0,2.0,89,0.00,,,0.00,weatherlink.com 1.10,2013-10-30 09:04:00,
2013-10-30 05:10:00,39.1,36.1,30.25,East,83,0.0,0.0,89,0.00,,,0.00,Wunderground v.1.15,2013-10-30 09:10:00,
2013-10-30 05:20:00,39.0,36.0,30.24,East,83,0.0,1.0,89,0.00,,,0.00,weatherlink.com 1.10,2013-10-30 09:20:00,
2013-10-30 05:35:00,38.7,36.0,30.24,SE,142,0.0,2.0,89,0.00,,,0.00,weatherlink.com 1.10,2013-10-30 09:35:00,
2013-10-30 05:50:00,38.5,35.0,30.25,SE,142,0.0,2.0,88,0.00,,,0.00,weatherlink.com 1.10,2013-10-30 09:50:00,
2013-10-30 06:04:00,38.2,35.0,30.25,SE,142,0.0,1.0,88,0.00,,,0.00,weatherlink.com 1.10,2013-10-30 10:04:00,
2013-10-30 06:10:00,37.9,34.7,30.24,SE,142,0.0,0.0,88,0.00,,,0.00,Wunderground v.1.15,2013-10-30 10:10:00,
2013-10-30 06:20:00,37.4,34.0,30.25,SE,142,0.0,0.0,88,0.00,,,0.00,weatherlink.com 1.10,2013-10-30 10:20:00,
2013-10-30 06:35:00,37.2,34.0,30.25,SE,142,0.0,1.0,88,0.00,,,0.00,weatherlink.com 1.10,2013-10-30 10:35:00,
2013-10-30 06:50:00,37.1,34.0,30.24,SE,142,0.0,1.0,88,0.00,,,0.00,weatherlink.com 1.10,2013-10-30 10:50:00,
2013-10-30 07:04:00,37.8,34.0,30.24,SE,131,0.0,3.0,87,0.00,,,0.00,weatherlink.com 1.10,2013-10-30 11:04:00,
2013-10-30 07:10:00,38.1,34.6,30.24,SE,131,0.0,0.0,87,0.00,,,0.00,Wunderground v.1.15,2013-10-30 11:10:00,
2013-10-30 07:20:00,38.6,35.0,30.24,South,171,0.0,3.0,86,0.00,,,0.00,weatherlink.com 1.10,2013-10-30 11:20:00,
2013-10-30 07:35:00,39.1,35.0,30.25,South,171,0.0,1.0,86,0.00,,,0.00,weatherlink.com 1.10,2013-10-30 11:35:00,
2013-10-30 07:40:00,39.2,35.1,30.24,South,171,0.0,0.0,85,0.00,,,0.00,Wunderground v.1.15,2013-10-30 11:40:00,
2013-10-30 07:50:00,39.6,35.0,30.25,NNW,344,1.0,2.0,84,0.00,,,0.00,weatherlink.com 1.10,2013-10-30 11:50:00,
2013-10-30 08:05:00,38.3,35.0,30.25,NW,315,0.0,2.0,88,0.00,,,0.00,weatherlink.com 1.10,2013-10-30 12:05:00,
2013-10-30 08:20:00,37.6,35.0,30.25,NW,315,0.0,1.0,91,0.00,,,0.00,weatherlink.com 1.10,2013-10-30 12:20:00,
2013-10-30 08:35:00,37.7,36.0,30.26,WNW,299,0.0,1.0,92,0.00,,,0.00,weatherlink.com 1.10,2013-10-30 12:35:00,
2013-10-30 08:50:00,38.0,36.0,30.26,WNW,299,0.0,1.0,93,0.00,,,0.00,weatherlink.com 1.10,2013-10-30 12:50:00,
2013-10-30 09:05:00,38.5,36.0,30.26,WNW,299,0.0,1.0,92,0.00,,,0.00,weatherlink.com 1.10,2013-10-30 13:05:00,
2013-10-30 09:20:00,39.3,37.0,30.26,WNW,300,0.0,1.0,92,0.00,,,0.00,weatherlink.com 1.10,2013-10-30 13:20:00,
2013-10-30 09:35:00,40.2,38.0,30.26,WNW,300,0.0,3.0,90,0.00,,,0.00,weatherlink.com 1.10,2013-10-30 13:35:00,
2013-10-30 09:50:00,41.3,38.0,30.27,North,355,0.0,2.0,88,0.00,,,0.00,weatherlink.com 1.10,2013-10-30 13:50:00,
2013-10-30 10:05:00,42.3,38.0,30.26,North,355,1.0,2.0,85,0.00,,,0.00,weatherlink.com 1.10,2013-10-30 14:05:00,
2013-10-30 10:20:00,43.5,39.0,30.27,WSW,253,1.0,3.0,83,0.00,,,0.00,weatherlink.com 1.10,2013-10-30 14:20:00,
2013-10-30 10:35:00,44.1,39.0,30.27,WNW,300,0.0,3.0,82,0.00,,,0.00,weatherlink.com 1.10,2013-10-30 14:35:00,
2013-10-30 10:51:00,46.9,41.0,30.26,WNW,293,0.0,4.0,79,0.00,,,0.00,weatherlink.com 1.10,2013-10-30 14:51:00,
2013-10-30 11:05:00,48.5,39.0,30.25,NE,43,0.0,5.0,70,0.00,,,0.00,weatherlink.com 1.10,2013-10-30 15:05:00,
2013-10-30 11:21:00,48.3,39.0,30.25,East,83,0.0,3.0,70,0.00,,,0.00,weatherlink.com 1.10,2013-10-30 15:21:00,
2013-10-30 11:36:00,49.7,41.0,30.25,East,83,0.0,1.0,71,0.00,,,0.00,weatherlink.com 1.10,2013-10-30 15:36:00,
2013-10-30 11:51:00,50.6,40.0,30.25,NW,304,2.0,3.0,67,0.00,,,0.00,weatherlink.com 1.10,2013-10-30 15:51:00,
2013-10-30 12:06:00,52.3,41.0,30.24,NNW,327,1.0,4.0,66,0.00,,,0.00,weatherlink.com 1.10,2013-10-30 16:06:00,
2013-10-30 12:21:00,54.2,42.0,30.23,SE,142,0.0,3.0,63,0.00,,,0.00,weatherlink.com 1.10,2013-10-30 16:21:00,
2013-10-30 12:36:00,54.1,41.0,30.22,East,100,2.0,3.0,62,0.00,,,0.00,weatherlink.com 1.10,2013-10-30 16:36:00,
2013-10-30 12:51:00,54.6,40.0,30.21,SSE,163,1.0,4.0,58,0.00,,,0.00,weatherlink.com 1.10,2013-10-30 16:51:00,
2013-10-30 13:06:00,54.9,39.0,30.20,SE,125,2.0,4.0,56,0.00,,,0.00,weatherlink.com 1.10,2013-10-30 17:06:00,
2013-10-30 13:21:00,55.6,39.0,30.20,SW,222,0.0,5.0,55,0.00,,,0.00,weatherlink.com 1.10,2013-10-30 17:21:00,
2013-10-30 13:36:00,56.6,41.0,30.19,West,262,0.0,6.0,56,0.00,,,0.00,weatherlink.com 1.10,2013-10-30 17:36:00,
2013-10-30 13:51:00,57.1,39.0,30.18,SE,134,0.0,3.0,52,0.00,,,0.00,weatherlink.com 1.10,2013-10-30 17:51:00,
2013-10-30 14:07:00,58.0,39.0,30.17,SSE,147,0.0,5.0,49,0.00,,,0.00,weatherlink.com 1.10,2013-10-30 18:07:00,
2013-10-30 14:21:00,58.9,40.0,30.16,NE,47,2.0,3.0,50,0.00,,,0.00,weatherlink.com 1.10,2013-10-30 18:21:00,
2013-10-30 14:36:00,58.6,40.0,30.16,NE,51,0.0,6.0,50,0.00,,,0.00,weatherlink.com 1.10,2013-10-30 18:36:00,
2013-10-30 14:52:00,59.2,40.0,30.17,NE,46,4.0,5.0,49,0.00,,,0.00,weatherlink.com 1.10,2013-10-30 18:52:00,
2013-10-30 15:06:00,59.4,40.0,30.17,NE,35,0.0,3.0,49,0.00,,,0.00,weatherlink.com 1.10,2013-10-30 19:06:00,
2013-10-30 15:21:00,59.5,39.0,30.16,NE,55,0.0,4.0,47,0.00,,,0.00,weatherlink.com 1.10,2013-10-30 19:21:00,
2013-10-30 15:36:00,59.6,40.0,30.16,NE,48,1.0,4.0,49,0.00,,,0.00,weatherlink.com 1.10,2013-10-30 19:36:00,
2013-10-30 15:52:00,59.6,40.0,30.15,NNE,26,0.0,4.0,48,0.00,,,0.00,weatherlink.com 1.10,2013-10-30 19:52:00,
2013-10-30 16:10:00,61.3,43.0,30.15,NNE,14,1.0,1.0,51,0.00,,,0.00,Wunderground v.1.15,2013-10-30 20:10:00,
2013-10-30 16:22:00,60.2,43.0,30.14,ENE,57,1.0,4.0,53,0.00,,,0.00,weatherlink.com 1.10,2013-10-30 20:22:00,
2013-10-30 16:37:00,58.2,42.0,30.14,East,98,0.0,7.0,55,0.00,,,0.00,weatherlink.com 1.10,2013-10-30 20:37:00,
2013-10-30 16:52:00,57.1,42.0,30.13,East,80,1.0,5.0,58,0.00,,,0.00,weatherlink.com 1.10,2013-10-30 20:52:00,
2013-10-30 17:07:00,56.9,42.0,30.14,ESE,105,0.0,5.0,58,0.00,,,0.00,weatherlink.com 1.10,2013-10-30 21:07:00,
2013-10-30 17:37:00,55.2,42.0,30.15,ENE,62,0.0,2.0,61,0.00,,,0.00,weatherlink.com 1.10,2013-10-30 21:37:00,
2013-10-30 17:52:00,54.3,42.0,30.14,NE,39,2.0,3.0,64,0.00,,,0.00,weatherlink.com 1.10,2013-10-30 21:52:00,
2013-10-30 18:06:00,53.4,42.0,30.15,NE,44,0.0,4.0,65,0.00,,,0.00,weatherlink.com 1.10,2013-10-30 22:06:00,
2013-10-30 18:22:00,51.9,41.0,30.15,East,95,2.0,5.0,66,0.00,,,0.00,weatherlink.com 1.10,2013-10-30 22:22:00,
2013-10-30 18:37:00,51.1,41.0,30.15,ESE,107,0.0,5.0,68,0.00,,,0.00,weatherlink.com 1.10,2013-10-30 22:37:00,
2013-10-30 18:52:00,50.8,41.0,30.16,NE,44,0.0,3.0,69,0.00,,,0.00,weatherlink.com 1.10,2013-10-30 22:52:00,
2013-10-30 19:07:00,49.8,41.0,30.16,NE,55,0.0,5.0,73,0.00,,,0.00,weatherlink.com 1.10,2013-10-30 23:07:00,
2013-10-30 19:22:00,48.0,41.0,30.16,East,84,3.0,7.0,77,0.00,,,0.00,weatherlink.com 1.10,2013-10-30 23:22:00,
2013-10-30 19:37:00,46.9,41.0,30.15,East,82,2.0,5.0,80,0.00,,,0.00,weatherlink.com 1.10,2013-10-30 23:37:00,
2013-10-30 19:52:00,46.9,41.0,30.15,East,83,2.0,3.0,80,0.00,,,0.00,weatherlink.com 1.10,2013-10-30 23:52:00,
2013-10-30 20:07:00,46.4,41.0,30.15,East,90,1.0,3.0,80,0.00,,,0.00,weatherlink.com 1.10,2013-10-31 00:07:00,
2013-10-30 20:22:00,45.6,40.0,30.15,East,80,3.0,6.0,81,0.00,,,0.00,weatherlink.com 1.10,2013-10-31 00:22:00,
2013-10-30 20:37:00,44.6,39.0,30.15,East,85,2.0,3.0,82,0.00,,,0.00,weatherlink.com 1.10,2013-10-31 00:37:00,
2013-10-30 20:52:00,44.4,39.0,30.15,East,94,5.0,7.0,82,0.00,,,0.00,weatherlink.com 1.10,2013-10-31 00:52:00,
2013-10-30 21:07:00,44.6,39.0,30.14,East,100,3.0,6.0,81,0.00,,,0.00,weatherlink.com 1.10,2013-10-31 01:07:00,
2013-10-30 21:22:00,45.0,39.0,30.14,East,88,2.0,7.0,79,0.00,,,0.00,weatherlink.com 1.10,2013-10-31 01:22:00,
2013-10-30 21:37:00,45.0,39.0,30.14,East,94,6.0,8.0,79,0.00,,,0.00,weatherlink.com 1.10,2013-10-31 01:37:00,
2013-10-30 21:52:00,45.8,39.0,30.14,ESE,118,4.0,8.0,77,0.00,,,0.00,weatherlink.com 1.10,2013-10-31 01:52:00,
2013-10-30 22:07:00,45.6,39.0,30.14,East,86,1.0,5.0,77,0.00,,,0.00,weatherlink.com 1.10,2013-10-31 02:07:00,
2013-10-30 22:22:00,44.3,38.0,30.14,SE,134,0.0,3.0,79,0.00,,,0.00,weatherlink.com 1.10,2013-10-31 02:22:00,
2013-10-30 22:37:00,42.9,37.0,30.14,SE,134,0.0,2.0,81,0.00,,,0.00,weatherlink.com 1.10,2013-10-31 02:37:00,
2013-10-30 22:52:00,42.2,37.0,30.14,SE,132,0.0,2.0,83,0.00,,,0.00,weatherlink.com 1.10,2013-10-31 02:52:00,
2013-10-30 23:08:00,42.0,38.0,30.13,SE,132,0.0,1.0,84,0.00,,,0.00,weatherlink.com 1.10,2013-10-31 03:08:00,
2013-10-30 23:23:00,42.5,38.0,30.12,SE,139,0.0,3.0,83,0.00,,,0.00,weatherlink.com 1.10,2013-10-31 03:23:00,
2013-10-30 23:38:00,42.6,38.0,30.11,SE,131,0.0,3.0,82,0.00,,,0.00,weatherlink.com 1.10,2013-10-31 03:38:00,
2013-10-30 23:52:00,42.8,38.0,30.10,SSE,159,0.0,1.0,83,0.00,,,0.00,weatherlink.com 1.10,2013-10-31 03:52:00,